This is the latest recevied weather packets stored in our database for station/object KB4MOX. If no packets are shown the sender has not sent any weather packets the latest 10 day(s).
| Time | Temp. | Humidity | Pressure | Rain* | Wind** | Luminosity | Snow |
|---|---|---|---|---|---|---|---|
| 1777467008 | 16.67° C | 99% | 1015.4 hPa | 0 mm | - | 100 W/m² | - |
| 1777466705 | 16.67° C | 98% | 1015.9 hPa | 0 mm | - | 62 W/m² | - |
| 1777466403 | 16.67° C | 98% | 1016 hPa | 0 mm | - | 29 W/m² | - |
| 1777466098 | 16.67° C | 99% | 1016.1 hPa | 0 mm | - | 48 W/m² | - |
| 1777465795 | 16.67° C | 98% | 1016.3 hPa | 0 mm | - | 44 W/m² | - |
| 1777465491 | 16.67° C | 99% | 1016.4 hPa | 0 mm | - | 54 W/m² | - |
| 1777465190 | 16.67° C | 98% | 1016.4 hPa | 0 mm | - | 48 W/m² | - |
| 1777464885 | 16.67° C | 98% | 1016.4 hPa | 0 mm | - | 55 W/m² | - |
| 1777464580 | 16.67° C | 99% | 1016.5 hPa | 0 mm | - | 42 W/m² | - |
| 1777464277 | 16.11° C | 99% | 1016.5 hPa | 0 mm | - | 48 W/m² | - |
| 1777463972 | 16.11° C | 98% | 1016.6 hPa | 0 mm | - | 36 W/m² | - |
| 1777463668 | 16.11° C | 99% | 1016.4 hPa | 1.27 mm | - | 43 W/m² | - |
| 1777463362 | 16.11° C | 98% | 1016.3 hPa | 0 mm | - | 30 W/m² | - |
| 1777463060 | 16.11° C | 99% | 1016.5 hPa | 0 mm | - | 22 W/m² | - |
| 1777462755 | 16.11° C | 98% | 1016.5 hPa | 0 mm | - | 18 W/m² | - |
| 1777462450 | 16.11° C | 98% | 1016.6 hPa | 1.78 mm | - | 11 W/m² | - |
| 1777462148 | 16.11° C | 98% | 1016.6 hPa | 1.78 mm | - | 7 W/m² | - |
| 1777461843 | 16.11° C | 98% | 1016.4 hPa | 0 mm | - | 5 W/m² | - |
| 1777461540 | 16.11° C | 98% | 1016.4 hPa | 0 mm | - | 4 W/m² | - |
| 1777461236 | 16.11° C | 98% | 1016.3 hPa | 0 mm | - | 3 W/m² | - |
| 1777460931 | 16.11° C | 98% | 1016.5 hPa | 0 mm | - | 2 W/m² | - |
| 1777460627 | 16.11° C | 98% | 1016.6 hPa | 0 mm | - | 2 W/m² | - |
| 1777460323 | 16.11° C | 98% | 1017 hPa | 0 mm | - | 1 W/m² | - |
| 1777460020 | 16.11° C | 98% | 1017.2 hPa | 1.27 mm | - | 1 W/m² | - |
| 1777459717 | 16.11° C | 98% | 1017.1 hPa | 1.27 mm | - | 1 W/m² | - |
* Rain latest hour (hover to see other rain measurements)
** Current wind speed in m/s (hover to see current wind gust speed)